Location: Fort Wayne
(41.1310°N, 85.1290°W)
Time: 11:28:27
(UTC-04:00)

SR - Visible Passes

Search period start: 17 April 2014 00:00
Search period end: 27 April 2014 00:00
Orbit: 581 x 886 km, 66.7° (Epoch: 17 April)

Date Brightness Start Highest point End Pass type
(mag) Time Alt. Az. Time Alt. Az. Time Alt. Az.
17 Apr ? 21:08:19 10° N 21:11:27 16° NE 21:14:42 10° ENE visible
17 Apr ? 22:48:58 10° NNW 22:54:23 81° ENE 22:54:51 74° ESE visible
18 Apr ? 00:33:02 10° WNW 00:34:23 13° W 00:34:23 13° W visible
18 Apr ? 22:01:05 10° NNW 22:06:14 45° NE 22:08:21 31° ESE visible
18 Apr ? 23:43:38 10° NW 23:47:54 28° WSW 23:47:54 28° WSW visible
19 Apr ? 21:13:27 10° N 21:17:55 26° NE 21:21:54 13° E visible
19 Apr ? 22:55:04 10° NW 23:00:22 53° WSW 23:01:27 46° SSW visible
20 Apr ? 22:06:54 10° NNW 22:12:21 84° ENE 22:15:03 33° SE visible
20 Apr ? 23:51:05 10° WNW 23:53:57 14° WSW 23:54:35 14° WSW visible
21 Apr ? 21:19:00 10° NNW 21:24:12 46° NE 21:28:42 15° SE visible
21 Apr ? 23:01:36 10° NW 23:06:12 28° WSW 23:08:15 22° SW visible
22 Apr ? 22:13:00 10° NW 22:18:19 52° WSW 22:21:59 21° S visible
23 Apr ? 21:24:49 10° NNW 21:30:17 86° ENE 21:35:47 12° SSE visible
23 Apr ? 23:09:07 10° WNW 23:11:52 14° WSW 23:14:41 10° SW visible
24 Apr ? 22:19:32 10° NW 22:24:07 27° WSW 22:28:54 10° SSW visible
25 Apr ? 21:30:55 10° NW 21:36:14 50° WSW 21:41:50 10° S visible
26 Apr ? 22:27:07 10° WNW 22:29:45 14° WSW 22:32:27 10° SW visible
